This demonstration page uses our WeatherBlox Daily Observations layout. Learn more.

Left ArrowRight Arrow

39.92423, -83.80882

Hourly Observations for May 12, 2020

Temp ( °F °C ) Dew Point ( °F °C ) Humidity (%) Winds ( mph kmh ) Pressure ( in mb ) Visibility ( mi km ) Precip ( " mm )
12:56 am 00:56 Cloudy 42 5.6 35 1.7 76 76 WNW 8 13 30.22 1023 10 16.0934 0 0
1:56 am 01:56 Mostly Cloudy 38 3.3 34 1.1 86 86 W 6 9 30.23 1024 10 16.0934 0 0
2:56 am 02:56 Clear 36 2.2 34 1.1 93 93 W 5 7 30.23 1024 10 16.0934 0 0
3:56 am 03:56 Clear 35 1.7 34 1.1 96 96 W 6 9 30.24 1024 10 16.0934 0.24 6.096
4:56 am 04:56 Clear 34 1.1 33 0.6 97 97 W 3 6 30.24 1024 10 16.0934 0 0
5:56 am 05:56 Clear 33 0.6 33 0.6 100 100 Calm 30.25 1024 10 16.0934 0 0
6:56 am 06:56 Sunny 32 0 32 0 100 100 Calm 30.26 1025 10 16.0934 0 0
7:56 am 07:56 Sunny 38 3.3 36 2.2 93 93 SW 3 6 30.28 1025 10 16.0934 0 0
8:56 am 08:56 Sunny 45 7.2 36 2.2 71 71 SSW 5 7 30.29 1026 10 16.0934 0.01 0.254
9:56 am 09:56 Sunny 47 8.3 37 2.8 69 69 SW 8 13 30.29 1026 10 16.0934 0.11 2.794
10:56 am 10:56 Mostly Sunny 50 10 33 0.6 52 52 WSW 12 19 30.28 1026 10 16.0934 0.22 5.588
11:56 am 11:56 Mostly Cloudy 51 10.6 30 -1.1 44 44 SW 8 13 30.27 1025 10 16.0934 0.06 1.524
12:56 pm 12:56 Cloudy 53 11.7 31 -0.6 43 43 WSW 13 20 30.26 1025 10 16.0934 0 0
1:56 pm 13:56 Cloudy 54 12.2 33 0.6 45 45 WSW 16 26 30.26 1025 10 16.0934 0 0
2:56 pm 14:56 Mostly Cloudy 54 12.2 34 1.1 47 47 WSW 9 15 30.25 1024 10 16.0934 0 0
3:56 pm 15:56 Cloudy 56 13.3 34 1.1 44 44 W 15 24 30.24 1024 10 16.0934 0 0
4:56 pm 16:56 Cloudy 56 13.3 32 0 40 40 W 7 11 30.24 1024 10 16.0934 0 0
5:56 pm 17:56 Mostly Cloudy 56 13.3 32 0 40 40 SW 12 19 30.23 1024 10 16.0934 0 0
6:56 pm 18:56 Mostly Cloudy 55 12.8 32 0 42 42 WSW 10 17 30.24 1024 10 16.0934 0 0
7:56 pm 19:56 Sunny 55 12.8 32 0 42 42 W 10 17 30.23 1024 10 16.0934 0 0
8:56 pm 20:56 Clear 51 10.6 35 1.7 54 54 SW 5 7 30.24 1024 10 16.0934 0 0
9:56 pm 21:56 Clear 47 8.3 36 2.2 66 66 SW 3 6 30.24 1024 10 16.0934 0.13 3.302
10:56 pm 22:56 Clear 43 6.1 34 1.1 71 71 Calm 30.24 1024 10 16.0934 0.05 1.27
11:56 pm 23:56 Clear 42 5.6 34 1.1 73 73 Calm 30.25 1025 10 16.0934 0.65 16.51

Powered by AerisWeather